Location: *
(42.7317°N, 73.6925°W)
Time: 23:52:42
(UTC+00:00)

Daily predictions for brighter satellites

Satellite Brightness Start Highest point End
(mag) Time Altitude Azimuth Time Altitude Azimuth Time Altitude Azimuth
COBE Rocket 4.2 23:19:28 10° N 23:24:30 79° WNW 23:29:37 10° SSW
Cosmos 2322 Rocket 4.3 23:24:49 10° NW 23:29:42 31° WSW 23:34:34 10° SSW
NOSS 3-4 (A) 4.5 23:24:35 10° NNW 23:31:03 39° NE 23:38:04 10° ESE
NOSS 3-4 (C) 4.5 23:24:41 10° NNW 23:31:09 39° NE 23:38:09 10° ESE
COSMOS 2455 2.9 23:25:53 10° NNW 23:31:57 81° ENE 23:37:58 10° SSE
Cosmos 1743 4.0 23:29:31 10° SSW 23:33:12 46° W 23:36:57 10° N
Cosmos 405 3.5 23:29:45 10° NNW 23:33:14 64° W 23:36:40 10° S
Cosmos 1939 Rocket 3.0 23:29:51 10° SSE 23:33:33 47° ENE 23:37:17 10° N
NOSS 3-3 (A) 4.2 23:32:48 10° SW 23:38:41 74° NW 23:45:18 10° NNE
NOSS 3-3 (C) 4.2 23:32:54 10° SW 23:38:47 75° NW 23:45:24 10° NNE
CZ-2D R/B 3.2 23:35:36 10° SSE 23:39:21 67° ENE 23:43:09 10° N
SL-16 R/B 4.2 23:39:01 10° NNE 23:40:36 11° NE 23:42:10 10° ENE
BREEZE M DEB (TANK) 3.1 23:40:49 10° WNW 23:42:39 25° N 23:45:17 10° NE
Cosmos 2333 4.2 23:37:17 10° NNW 23:42:59 81° ENE 23:48:42 10° SSE
Cosmos 2074 Rocket 4.0 23:37:57 10° N 23:44:13 80° E 23:50:26 10° S
Aureole 1 Rocket 3.1 23:41:51 10° NNW 23:47:03 67° ENE 23:50:58 10° SSE
Cosmos 2219 Rocket 2.2 23:42:50 10° NNW 23:48:24 61° ENE 23:53:55 10° SE
Okean 1 Rocket 3.1 23:48:04 10° S 23:52:17 53° E 23:56:32 10° NNE
COSMOS 2428 2.7 23:47:23 10° NNW 23:53:04 68° ENE 23:58:42 10° SSE
USA 186 3.0 23:51:40 14° ESE 23:53:57 26° ENE 23:56:52 10° NNE
NOAA 11 4.2 23:48:46 10° SSE 23:54:16 83° ENE 23:59:47 10° NNW
